PORT of CASTELLON

Państwo: Spain Państwo: Spain (ES)
Szerokość/długość geograficzna: 39.967005° / 0.020405295° Pokaż mapę Pokaż mapę
Czas lokalny:  UTC +1
UN/LOCODE: ESCAS
Statki obecnie w Porcie: 3
Oczekiwane przybicie: 14

Najnowsze przybicia i odpłynięcia


Nazwy statków
Przybicie (UTC)
Przybicie (LT)
Odpływa (UTC)
Odpływa (LT)
Vessel Type: Statki transportowe  JACARANDA 2014-10-29 17:47:00 2014-10-29 19:47:00 2014-10-31 17:28:00 2014-10-31 18:28:00
Vessel Type: Tankowce  SICHEM ORCHID 2014-10-31 04:52:00 2014-10-31 05:52:00
Vessel Type: Holownik, Pilot itp.  VB MUSCLE 2014-10-31 01:51:00 2014-10-31 02:51:00
Vessel Type: Holownik, Pilot itp.  VB MUSCLE 2014-10-29 17:43:00 2014-10-29 19:43:00 2014-10-30 23:19:00 2014-10-31 00:19:00
Vessel Type: Statki transportowe  SMARAGD 2014-10-30 11:43:00 2014-10-30 12:43:00 2014-10-30 17:00:00 2014-10-30 18:00:00
Vessel Type: Statki transportowe  HUMBOLDT BAY 2014-10-30 14:02:00 2014-10-30 15:02:00
Vessel Type: Rybołówstwo  QUIQUET 2014-10-24 12:21:00 2014-10-24 14:21:00 2014-10-30 10:37:00 2014-10-30 11:37:00
Vessel Type: Statki transportowe  MINERVA 2014-10-29 16:34:00 2014-10-29 17:34:00 2014-10-30 06:06:00 2014-10-30 07:06:00
Vessel Type: Statki transportowe  DINGXIANGHAI 2014-10-26 08:29:00 2014-10-26 10:29:00 2014-10-30 02:28:00 2014-10-30 03:28:00
Vessel Type: Statki transportowe  MEDAZOV JULIA 2014-10-10 04:42:00 2014-10-10 06:42:00 2014-10-29 21:04:00 2014-10-29 22:04:00

Oczekiwane przybicie


Nazwy statków
Scheduled Arrival (UTC)
Planowane przybicie (wg. czasu lokalnego)
Szacunkowy czas przybicia (UTC)
Szacunkowy czas przybicia (wg. Czasu lokalnego)
Vessel Type: Statki transportowe  SARA BORCHARD 2014-10-31 18:00:00 2014-10-31 19:00:00
Vessel Type: Statki transportowe  EMONA 2014-10-31 23:00:00 2014-11-01 00:00:00 2014-10-31 22:02:00 2014-10-31 23:02:00
Vessel Type: Statki transportowe  CHARLOTTE BORCHARD 2014-11-01 05:00:00 2014-11-01 06:00:00 2014-11-01 10:50:00 2014-11-01 11:50:00
Vessel Type: Statki transportowe  SOPHIA 1 2014-11-01 08:00:00 2014-11-01 09:00:00 2014-11-02 13:20:00 2014-11-02 14:20:00
Vessel Type: Tankowce  SICHEM FALCON 2014-11-01 08:00:00 2014-11-01 09:00:00 2014-11-01 08:40:00 2014-11-01 09:40:00
Vessel Type: Statki transportowe  MSC MONICA 2014-11-01 12:00:00 2014-11-01 13:00:00 2014-11-01 08:58:00 2014-11-01 09:58:00
Vessel Type: Statki transportowe  CARIBANA EXPRESS 2014-11-01 20:00:00 2014-11-01 21:00:00 2014-10-31 18:54:00 2014-10-31 19:54:00
Vessel Type: Tankowce  CONTI BENGUELA 2014-11-02 02:00:00 2014-11-02 03:00:00 2014-11-05 13:37:00 2014-11-05 14:37:00
Vessel Type: Statki transportowe  CATANIA 2014-11-02 16:00:00 2014-11-02 17:00:00 2014-11-04 01:21:00 2014-11-04 02:21:00
Vessel Type: Statki transportowe  PRETTY TEAM 2014-11-02 18:00:00 2014-11-02 19:00:00 2014-11-02 21:17:00 2014-11-02 22:17:00

Wind Forecast


    
Czas (UTC)
Szybkość
Direction
Temperature
2014-10-31 18:00:00 7 knots 94° 20°C
2014-10-31 21:00:00 3 knots 358° 20°C
2014-11-01 00:00:00 6 knots 353° 19°C
2014-11-01 03:00:00 6 knots 343° 18°C
2014-11-01 06:00:00 6 knots 353° 18°C
2014-11-01 09:00:00 2 knots 105° 19°C
2014-11-01 12:00:00 6 knots 139° 19°C
2014-11-01 15:00:00 7 knots 133° 18°C
2014-11-01 18:00:00 3 knots 159° 19°C
2014-11-01 21:00:00 2 knots 302° 19°C
2014-11-02 00:00:00 4 knots 322° 18°C
2014-11-02 03:00:00 3 knots 302° 18°C
2014-11-02 06:00:00 3 knots 312° 18°C
2014-11-02 09:00:00 3 knots 256° 18°C
2014-11-02 12:00:00 7 knots 194° 19°C
2014-11-02 15:00:00 8 knots 174° 19°C
2014-11-02 18:00:00 6 knots 204° 19°C